Data No, UTC Date,UTC Time,Latitude,Longitude,Course(deg),Temp(degC),Sal(psu)
539,2020/12/17,8:58,42-36.88N,141-37.03E,210,7.607,33.124
540,2020/12/17,8:59,42-36.64N,141-36.85E,205,7.77,33.1732
541,2020/12/17,9:00,42-36.37N,141-36.82E,176,8.703,33.1934
542,2020/12/17,9:01,42-36.09N,141-36.93E,158,8.915,33.367
543,2020/12/17,9:02,42-35.81N,141-37.09E,156,8.998,33.4608
544,2020/12/17,9:03,42-35.51N,141-37.27E,155,9.003,33.5154
545,2020/12/17,9:04,42-35.22N,141-37.44E,157,9.02,33.5222
546,2020/12/17,9:05,42-34.91N,141-37.61E,157,8.914,33.5462
547,2020/12/17,9:06,42-34.59N,141-37.78E,158,8.928,33.5442
548,2020/12/17,9:07,42-34.29N,141-37.95E,157,9.054,33.5409
549,2020/12/17,9:08,42-33.96N,141-38.13E,158,9.408,33.547
550,2020/12/17,9:09,42-33.64N,141-38.30E,158,9.644,33.5761
551,2020/12/17,9:10,42-33.32N,141-38.47E,158,9.796,33.5966
552,2020/12/17,9:11,42-32.98N,141-38.64E,158,9.891,33.6053
553,2020/12/17,9:12,42-32.66N,141-38.82E,158,9.975,33.6136
554,2020/12/17,9:13,42-32.32N,141-39.00E,158,10.056,33.6109
555,2020/12/17,9:14,42-32.00N,141-39.17E,158,10.109,33.6145
556,2020/12/17,9:15,42-31.66N,141-39.35E,158,10.144,33.6057
557,2020/12/17,9:16,42-31.31N,141-39.53E,158,10.178,33.6114
558,2020/12/17,9:17,42-30.98N,141-39.71E,158,10.219,33.6089
559,2020/12/17,9:18,42-30.63N,141-39.89E,158,10.258,33.6275
560,2020/12/17,9:19,42-30.29N,141-40.08E,158,10.373,33.6256
561,2020/12/17,9:20,42-29.94N,141-40.27E,158,10.456,33.6336
562,2020/12/17,9:21,42-29.58N,141-40.46E,158,10.488,33.6287
563,2020/12/17,9:22,42-29.22N,141-40.64E,159,10.504,33.6172
564,2020/12/17,9:23,42-28.85N,141-40.83E,158,10.507,33.6145
565,2020/12/17,9:24,42-28.51N,141-41.05E,150,10.507,33.6159
566,2020/12/17,9:25,42-28.26N,141-41.43E,124,10.513,33.613
567,2020/12/17,9:26,42-28.05N,141-41.91E,118,10.447,33.6253
568,2020/12/17,9:27,42-27.89N,141-42.36E,117,10.342,33.6356
569,2020/12/17,9:28,42-27.71N,141-42.84E,117,10.316,33.6218
570,2020/12/17,9:29,42-27.52N,141-43.31E,118,10.268,33.6322
571,2020/12/17,9:30,42-27.32N,141-43.79E,119,10.221,33.6329
572,2020/12/17,9:31,42-27.12N,141-44.27E,119,10.123,33.6243
573,2020/12/17,9:32,42-26.93N,141-44.74E,118,10.004,33.6261
574,2020/12/17,9:33,42-26.73N,141-45.22E,119,10.003,33.6193
575,2020/12/17,9:34,42-26.53N,141-45.68E,119,10.019,33.6242
576,2020/12/17,9:35,42-26.34N,141-46.16E,119,10.057,33.601
577,2020/12/17,9:36,42-26.14N,141-46.64E,119,10.055,33.6082
578,2020/12/17,9:37,42-25.94N,141-47.10E,119,10.023,33.6112
579,2020/12/17,9:38,42-25.74N,141-47.58E,120,9.913,33.6134
580,2020/12/17,9:39,42-25.54N,141-48.04E,120,9.822,33.61
581,2020/12/17,9:40,42-25.34N,141-48.51E,120,9.72,33.5955
582,2020/12/17,9:41,42-25.14N,141-48.99E,118,9.568,33.6023
583,2020/12/17,9:42,42-24.94N,141-49.46E,119,9.708,33.5899
584,2020/12/17,9:43,42-24.74N,141-49.94E,119,9.809,33.6176
585,2020/12/17,9:44,42-24.55N,141-50.39E,119,9.853,33.6195
586,2020/12/17,9:45,42-24.35N,141-50.86E,119,9.842,33.6225
587,2020/12/17,9:46,42-24.15N,141-51.33E,119,9.832,33.6228
588,2020/12/17,9:47,42-23.94N,141-51.84E,119,9.799,33.6133
589,2020/12/17,9:48,42-23.76N,141-52.26E,120,9.757,33.6131
590,2020/12/17,9:49,42-23.57N,141-52.71E,120,9.721,33.6153
591,2020/12/17,9:50,42-23.34N,141-53.23E,120,9.658,33.6158
592,2020/12/17,9:51,42-23.16N,141-53.65E,119,9.527,33.6207
593,2020/12/17,9:52,42-22.97N,141-54.09E,119,9.539,33.628
594,2020/12/17,9:53,42-22.78N,141-54.56E,119,9.491,33.6171
595,2020/12/17,9:54,42-22.59N,141-55.01E,120,9.469,33.6198
596,2020/12/17,9:55,42-22.39N,141-55.47E,119,9.586,33.6249
597,2020/12/17,9:56,42-22.19N,141-55.94E,119,9.72,33.6248
598,2020/12/17,9:57,42-22.00N,141-56.41E,118,9.772,33.6312
599,2020/12/17,9:58,42-21.79N,141-56.94E,118,9.788,33.6313
600,2020/12/17,9:59,42-21.60N,141-57.39E,119,9.787,33.6174
601,2020/12/17,10:00,42-21.43N,141-57.78E,120,9.788,33.6131
602,2020/12/17,10:01,42-21.23N,141-58.25E,118,9.788,33.6332
603,2020/12/17,10:02,42-21.05N,141-58.71E,117,9.818,33.6249
604,2020/12/17,10:03,42-20.82N,141-59.25E,120,9.868,33.6454
605,2020/12/17,10:04,42-20.65N,141-59.65E,118,9.862,33.6368
606,2020/12/17,10:05,42-20.46N,142-00.10E,120,9.839,33.6368
607,2020/12/17,10:06,42-20.25N,142-00.56E,121,9.851,33.6225
608,2020/12/17,10:07,42-20.05N,142-01.00E,122,9.853,33.6293
609,2020/12/17,10:08,42-19.84N,142-01.46E,120,9.841,33.6336
610,2020/12/17,10:09,42-19.60N,142-01.96E,122,9.817,33.6318
611,2020/12/17,10:10,42-19.40N,142-02.41E,122,9.8,33.6366
612,2020/12/17,10:11,42-19.19N,142-02.87E,121,9.76,33.6165
613,2020/12/17,10:12,42-18.98N,142-03.31E,122,9.722,33.618
614,2020/12/17,10:13,42-18.77N,142-03.77E,121,9.65,33.5967
615,2020/12/17,10:14,42-18.58N,142-04.18E,122,9.889,33.6073
616,2020/12/17,10:15,42-18.38N,142-04.61E,121,10.146,33.6131
617,2020/12/17,10:16,42-18.16N,142-05.07E,122,10.19,33.6132
618,2020/12/17,10:17,42-17.95N,142-05.52E,122,10.152,33.6268
619,2020/12/17,10:18,42-17.74N,142-05.99E,121,10.154,33.6153
620,2020/12/17,10:19,42-17.51N,142-06.49E,122,10.2,33.6242
621,2020/12/17,10:20,42-17.29N,142-06.94E,123,10.292,33.6308
622,2020/12/17,10:21,42-17.10N,142-07.34E,122,10.32,33.6276
623,2020/12/17,10:22,42-16.90N,142-07.78E,122,10.344,33.6248
624,2020/12/17,10:23,42-16.68N,142-08.23E,123,10.408,33.6181
625,2020/12/17,10:24,42-16.46N,142-08.67E,122,10.451,33.6266
626,2020/12/17,10:25,42-16.25N,142-09.12E,122,10.441,33.617
627,2020/12/17,10:26,42-16.03N,142-09.58E,123,10.397,33.6323
628,2020/12/17,10:27,42-15.82N,142-10.03E,122,10.335,33.6309
629,2020/12/17,10:28,42-15.60N,142-10.49E,121,10.262,33.6308
630,2020/12/17,10:29,42-15.40N,142-10.94E,122,10.155,33.6261
631,2020/12/17,10:30,42-15.18N,142-11.39E,122,10.02,33.6102
632,2020/12/17,10:31,42-14.97N,142-11.85E,122,9.918,33.6068
633,2020/12/17,10:32,42-14.75N,142-12.29E,121,9.799,33.6045
634,2020/12/17,10:33,42-14.54N,142-12.75E,121,9.746,33.6177
635,2020/12/17,10:34,42-14.34N,142-13.20E,120,9.704,33.6051
636,2020/12/17,10:35,42-14.13N,142-13.65E,121,9.715,33.6078
637,2020/12/17,10:36,42-13.92N,142-14.11E,122,9.758,33.5912
638,2020/12/17,10:37,42-13.72N,142-14.56E,122,9.827,33.5969
639,2020/12/17,10:38,42-13.51N,142-15.02E,121,9.883,33.5864
640,2020/12/17,10:39,42-13.31N,142-15.47E,120,9.968,33.6004
641,2020/12/17,10:40,42-13.10N,142-15.93E,121,10.117,33.6058
642,2020/12/17,10:41,42-12.90N,142-16.40E,119,10.778,33.6111
643,2020/12/17,10:42,42-12.70N,142-16.85E,121,11.109,33.6376
644,2020/12/17,10:43,42-12.49N,142-17.32E,121,11.311,33.628
645,2020/12/17,10:44,42-12.29N,142-17.77E,119,11.396,33.6317
646,2020/12/17,10:45,42-12.08N,142-18.23E,121,11.485,33.6305
647,2020/12/17,10:46,42-11.88N,142-18.70E,119,11.546,33.6268
648,2020/12/17,10:47,42-11.69N,142-19.16E,118,11.542,33.6217
649,2020/12/17,10:48,42-11.49N,142-19.62E,120,11.54,33.6184
650,2020/12/17,10:49,42-11.28N,142-20.08E,120,11.574,33.6064
651,2020/12/17,10:50,42-11.07N,142-20.54E,120,11.57,33.617
652,2020/12/17,10:51,42-10.87N,142-21.01E,120,11.56,33.6136
653,2020/12/17,10:52,42-10.66N,142-21.46E,121,11.537,33.6158
654,2020/12/17,10:53,42-10.46N,142-21.92E,120,11.496,33.6251
655,2020/12/17,10:54,42-10.26N,142-22.37E,121,11.453,33.6236
656,2020/12/17,10:55,42-10.05N,142-22.82E,121,11.413,33.6301
657,2020/12/17,10:56,42-09.84N,142-23.28E,122,11.393,33.6124
658,2020/12/17,10:57,42-09.63N,142-23.72E,122,11.379,33.6253
659,2020/12/17,10:58,42-09.42N,142-24.17E,120,11.343,33.6251
660,2020/12/17,10:59,42-09.22N,142-24.63E,120,11.313,33.6169
661,2020/12/17,11:00,42-09.02N,142-25.07E,121,11.316,33.616
662,2020/12/17,11:01,42-08.80N,142-25.53E,123,11.302,33.6306
663,2020/12/17,11:02,42-08.59N,142-25.97E,122,11.323,33.6183
664,2020/12/17,11:03,42-08.39N,142-26.43E,120,11.339,33.617
665,2020/12/17,11:04,42-08.19N,142-26.89E,119,11.341,33.6309
666,2020/12/17,11:05,42-08.00N,142-27.34E,118,11.34,33.6251
667,2020/12/17,11:06,42-07.81N,142-27.81E,118,11.353,33.6318
668,2020/12/17,11:07,42-07.61N,142-28.27E,120,11.36,33.6094
669,2020/12/17,11:08,42-07.41N,142-28.72E,120,11.367,33.6237
670,2020/12/17,11:09,42-07.22N,142-29.18E,118,11.37,33.6201
671,2020/12/17,11:10,42-07.02N,142-29.65E,119,11.365,33.6253
672,2020/12/17,11:11,42-06.82N,142-30.12E,119,11.358,33.6301
673,2020/12/17,11:12,42-06.62N,142-30.56E,120,11.362,33.6386
674,2020/12/17,11:13,42-06.43N,142-31.02E,119,11.378,33.6369
675,2020/12/17,11:14,42-06.24N,142-31.48E,120,11.372,33.6167
676,2020/12/17,11:15,42-06.04N,142-31.94E,118,11.366,33.6262
677,2020/12/17,11:16,42-05.85N,142-32.40E,120,11.367,33.6177
678,2020/12/17,11:17,42-05.65N,142-32.85E,119,11.358,33.6179
679,2020/12/17,11:18,42-05.45N,142-33.31E,121,11.349,33.615
680,2020/12/17,11:19,42-05.26N,142-33.76E,119,11.342,33.6304
681,2020/12/17,11:20,42-05.07N,142-34.21E,120,11.332,33.6185
682,2020/12/17,11:21,42-04.87N,142-34.67E,119,11.314,33.6349
683,2020/12/17,11:22,42-04.67N,142-35.12E,120,11.299,33.6326
684,2020/12/17,11:23,42-04.47N,142-35.58E,119,11.278,33.6315
685,2020/12/17,11:24,42-04.28N,142-36.05E,119,11.278,33.6304
686,2020/12/17,11:25,42-04.09N,142-36.50E,120,11.264,33.6195
687,2020/12/17,11:26,42-03.89N,142-36.96E,120,11.224,33.6223
688,2020/12/17,11:27,42-03.70N,142-37.41E,119,11.232,33.6235
689,2020/12/17,11:28,42-03.51N,142-37.87E,118,11.249,33.6274
690,2020/12/17,11:29,42-03.30N,142-38.33E,122,11.263,33.6256
691,2020/12/17,11:30,42-03.11N,142-38.78E,119,11.249,33.6334
692,2020/12/17,11:31,42-02.90N,142-39.24E,119,11.246,33.6313
693,2020/12/17,11:32,42-02.72N,142-39.70E,118,11.219,33.6391
694,2020/12/17,11:33,42-02.53N,142-40.16E,118,11.19,33.6354
695,2020/12/17,11:34,42-02.32N,142-40.62E,120,11.135,33.6317
696,2020/12/17,11:35,42-02.12N,142-41.08E,119,11.101,33.625
697,2020/12/17,11:36,42-01.92N,142-41.56E,119,11.087,33.624
698,2020/12/17,11:37,42-01.73N,142-42.01E,120,11.099,33.6143
699,2020/12/17,11:38,42-01.52N,142-42.47E,120,11.063,33.6279
700,2020/12/17,11:39,42-01.32N,142-42.95E,120,11.013,33.6174
701,2020/12/17,11:40,42-01.12N,142-43.42E,119,10.983,33.6198
702,2020/12/17,11:41,42-00.92N,142-43.89E,119,10.942,33.6345
703,2020/12/17,11:42,42-00.73N,142-44.35E,118,11.001,33.6334
704,2020/12/17,11:43,42-00.54N,142-44.82E,118,11.069,33.639
705,2020/12/17,11:44,42-00.33N,142-45.32E,119,11.084,33.624
706,2020/12/17,11:45,42-00.12N,142-45.77E,119,11.059,33.635
707,2020/12/17,11:46,41-59.95N,142-46.22E,120,11.01,33.6154
708,2020/12/17,11:47,41-59.75N,142-46.67E,120,10.939,33.6178
709,2020/12/17,11:48,41-59.55N,142-47.13E,119,10.905,33.6049
710,2020/12/17,11:49,41-59.35N,142-47.60E,120,10.835,33.6263
711,2020/12/17,11:50,41-59.16N,142-48.05E,118,10.778,33.6059
712,2020/12/17,11:51,41-58.97N,142-48.51E,119,10.76,33.624
713,2020/12/17,11:52,41-58.77N,142-48.96E,120,10.735,33.6207
714,2020/12/17,11:53,41-58.57N,142-49.41E,122,10.687,33.6178
715,2020/12/17,11:54,41-58.37N,142-49.88E,118,10.603,33.6112
716,2020/12/17,11:55,41-58.18N,142-50.43E,115,10.472,33.5975
717,2020/12/17,11:56,41-58.02N,142-50.90E,113,10.497,33.5942
718,2020/12/17,11:57,41-57.86N,142-51.37E,114,10.404,33.5924
719,2020/12/17,11:58,41-57.72N,142-51.82E,110,10.265,33.5939
720,2020/12/17,11:59,41-57.56N,142-52.34E,111,10.849,33.5951
721,2020/12/17,12:00,41-57.42N,142-52.74E,114,10.927,33.6225
722,2020/12/17,12:01,41-57.25N,142-53.27E,113,10.921,33.6162
723,2020/12/17,12:02,41-57.08N,142-53.74E,114,10.942,33.5997
724,2020/12/17,12:03,41-56.95N,142-54.16E,113,10.924,33.6139
725,2020/12/17,12:04,41-56.78N,142-54.64E,115,10.948,33.6016
726,2020/12/17,12:05,41-56.61N,142-55.10E,118,10.934,33.6076
727,2020/12/17,12:06,41-56.41N,142-55.56E,119,10.92,33.604
728,2020/12/17,12:07,41-56.21N,142-56.05E,119,10.912,33.6183
729,2020/12/17,12:08,41-56.01N,142-56.49E,119,10.887,33.6033
730,2020/12/17,12:09,41-55.80N,142-57.01E,119,10.861,33.6138
731,2020/12/17,12:10,41-55.63N,142-57.40E,119,10.834,33.6153
732,2020/12/17,12:11,41-55.43N,142-57.87E,119,10.793,33.611
733,2020/12/17,12:12,41-55.24N,142-58.32E,119,10.77,33.6019
734,2020/12/17,12:13,41-55.03N,142-58.77E,122,10.711,33.602
735,2020/12/17,12:14,41-54.81N,142-59.22E,121,10.68,33.592
736,2020/12/17,12:15,41-54.64N,142-59.70E,115,10.636,33.6019
737,2020/12/17,12:16,41-54.45N,143-00.17E,119,10.623,33.5993
738,2020/12/17,12:17,41-54.25N,143-00.62E,120,10.576,33.5985
739,2020/12/17,12:18,41-54.04N,143-01.08E,121,10.512,33.6128
740,2020/12/17,12:19,41-53.82N,143-01.54E,122,10.504,33.6086
741,2020/12/17,12:20,41-53.63N,143-01.99E,117,10.482,33.6102
742,2020/12/17,12:21,41-53.44N,143-02.46E,121,10.493,33.5881
743,2020/12/17,12:22,41-53.22N,143-02.90E,121,10.329,33.6053
744,2020/12/17,12:23,41-53.03N,143-03.35E,118,10.198,33.5967
745,2020/12/17,12:24,41-52.84N,143-03.81E,120,10.086,33.5877
746,2020/12/17,12:25,41-52.64N,143-04.24E,119,9.937,33.5825
747,2020/12/17,12:26,41-52.44N,143-04.70E,122,9.703,33.6008
748,2020/12/17,12:27,41-52.24N,143-05.13E,122,9.347,33.5815
749,2020/12/17,12:28,41-52.05N,143-05.57E,118,9.236,33.5613
750,2020/12/17,12:29,41-51.85N,143-06.01E,121,9.09,33.553
751,2020/12/17,12:30,41-51.65N,143-06.44E,121,9.131,33.5404
752,2020/12/17,12:31,41-51.44N,143-06.95E,117,9.457,33.5293
753,2020/12/17,12:32,41-51.26N,143-07.39E,119,9.691,33.5325
754,2020/12/17,12:33,41-51.08N,143-07.84E,118,9.722,33.5623
755,2020/12/17,12:34,41-50.88N,143-08.28E,121,9.539,33.5563
756,2020/12/17,12:35,41-50.71N,143-08.63E,121,9.324,33.5421
757,2020/12/17,12:36,41-50.54N,143-09.08E,117,8.978,33.5363
758,2020/12/17,12:37,41-50.36N,143-09.51E,120,9.405,33.5015
759,2020/12/17,12:38,41-50.16N,143-09.98E,120,9.665,33.4967
760,2020/12/17,12:39,41-49.96N,143-10.43E,119,9.634,33.5152
761,2020/12/17,12:40,41-49.80N,143-10.86E,117,9.289,33.5403
762,2020/12/17,12:41,41-49.60N,143-11.28E,122,8.998,33.5249
763,2020/12/17,12:42,41-49.41N,143-11.69E,122,8.761,33.4833
764,2020/12/17,12:43,41-49.24N,143-12.12E,115,8.595,33.4245
765,2020/12/17,12:44,41-49.06N,143-12.55E,119,8.531,33.379
766,2020/12/17,12:45,41-48.89N,143-12.97E,117,8.505,33.3465
767,2020/12/17,12:46,41-48.72N,143-13.34E,122,8.493,33.3491
768,2020/12/17,12:47,41-48.54N,143-13.75E,120,8.501,33.3495
769,2020/12/17,12:48,41-48.37N,143-14.17E,112,8.481,33.3643
770,2020/12/17,12:49,41-48.39N,143-14.62E,77,8.467,33.3509
771,2020/12/17,12:50,41-48.49N,143-15.09E,73,8.462,33.3519
772,2020/12/17,12:51,41-48.55N,143-15.55E,79,8.472,33.3557
773,2020/12/17,12:52,41-48.62N,143-15.96E,79,8.468,33.3451
774,2020/12/17,12:53,41-48.70N,143-16.35E,75,8.448,33.3463
775,2020/12/17,12:54,41-48.77N,143-16.80E,80,8.426,33.3286
776,2020/12/17,12:55,41-48.81N,143-17.24E,83,8.4,33.3274
777,2020/12/17,12:56,41-48.85N,143-17.71E,84,8.383,33.3294
778,2020/12/17,12:57,41-48.89N,143-18.17E,85,8.448,33.3422
779,2020/12/17,12:58,41-48.92N,143-18.65E,82,8.495,33.3382
780,2020/12/17,12:59,41-48.97N,143-19.13E,81,8.519,33.3493
781,2020/12/17,13:00,41-49.03N,143-19.60E,79,8.577,33.3524
782,2020/12/17,13:01,41-49.08N,143-20.06E,84,8.627,33.3531
783,2020/12/17,13:02,41-49.12N,143-20.54E,83,8.654,33.3357
784,2020/12/17,13:03,41-49.19N,143-21.00E,77,8.628,33.3555
785,2020/12/17,13:04,41-49.37N,143-21.37E,51,8.549,33.35
786,2020/12/17,13:05,41-49.57N,143-21.70E,49,8.499,33.3502
787,2020/12/17,13:06,41-49.79N,143-22.01E,43,8.448,33.3413
788,2020/12/17,13:07,41-50.03N,143-22.31E,42,8.401,33.3607
789,2020/12/17,13:08,41-50.27N,143-22.60E,41,8.412,33.3494
790,2020/12/17,13:09,41-50.52N,143-22.90E,42,8.412,33.3437
791,2020/12/17,13:10,41-50.76N,143-23.19E,42,8.4,33.339
792,2020/12/17,13:11,41-51.01N,143-23.49E,42,8.41,33.3339
793,2020/12/17,13:12,41-51.26N,143-23.80E,42,8.468,33.33
794,2020/12/17,13:13,41-51.50N,143-24.08E,39,8.514,33.3192
795,2020/12/17,13:14,41-51.77N,143-24.36E,37,8.309,33.3297
796,2020/12/17,13:15,41-52.02N,143-24.63E,38,8.207,33.3104
797,2020/12/17,13:16,41-52.28N,143-24.90E,38,8.179,33.2948
798,2020/12/17,13:17,41-52.54N,143-25.17E,38,8.154,33.2971
799,2020/12/17,13:18,41-52.81N,143-25.45E,37,8.111,33.2834
800,2020/12/17,13:19,41-53.09N,143-25.71E,35,8.06,33.2767
801,2020/12/17,13:20,41-53.35N,143-25.96E,33,8.015,33.2688
802,2020/12/17,13:21,41-53.63N,143-26.21E,33,7.991,33.2623
803,2020/12/17,13:22,41-53.92N,143-26.47E,33,8.102,33.2671
804,2020/12/17,13:23,41-54.20N,143-26.71E,32,8.115,33.2773
805,2020/12/17,13:24,41-54.49N,143-26.96E,31,8.152,33.2763
806,2020/12/17,13:25,41-54.78N,143-27.19E,31,8.165,33.2801
807,2020/12/17,13:26,41-55.06N,143-27.43E,32,8.156,33.3063
808,2020/12/17,13:27,41-55.36N,143-27.67E,31,8.166,33.3016
809,2020/12/17,13:28,41-55.65N,143-27.90E,31,8.193,33.2846
810,2020/12/17,13:29,41-55.94N,143-28.15E,31,8.211,33.2972
811,2020/12/17,13:30,41-56.24N,143-28.39E,32,8.229,33.2957
812,2020/12/17,13:31,41-56.53N,143-28.64E,31,8.242,33.2942
813,2020/12/17,13:32,41-56.83N,143-28.89E,32,8.261,33.3014
814,2020/12/17,13:33,41-57.12N,143-29.14E,33,8.27,33.3003
815,2020/12/17,13:34,41-57.42N,143-29.40E,32,8.281,33.3019
816,2020/12/17,13:35,41-57.72N,143-29.65E,32,8.284,33.3056
817,2020/12/17,13:36,41-58.01N,143-29.91E,33,8.301,33.3098
818,2020/12/17,13:37,41-58.31N,143-30.17E,32,8.316,33.2952
819,2020/12/17,13:38,41-58.59N,143-30.42E,33,8.29,33.2969
820,2020/12/17,13:39,41-58.89N,143-30.68E,33,8.253,33.308
821,2020/12/17,13:40,41-59.18N,143-30.93E,32,8.222,33.2989
822,2020/12/17,13:41,41-59.48N,143-31.19E,33,8.18,33.2958
823,2020/12/17,13:42,41-59.78N,143-31.46E,33,8.196,33.2878
824,2020/12/17,13:43,42-00.07N,143-31.71E,31,8.235,33.2985
825,2020/12/17,13:44,42-00.38N,143-31.97E,31,8.328,33.2785
826,2020/12/17,13:45,42-00.67N,143-32.19E,27,8.468,33.2635
827,2020/12/17,13:46,42-00.99N,143-32.41E,27,8.507,33.2895
828,2020/12/17,13:47,42-01.30N,143-32.65E,30,8.48,33.3055
829,2020/12/17,13:48,42-01.60N,143-32.89E,31,8.667,33.3028
830,2020/12/17,13:49,42-01.91N,143-33.14E,31,8.778,33.3215
831,2020/12/17,13:52,42-02.90N,143-33.97E,31,---,33.3368
832,2020/12/17,13:53,42-03.13N,143-34.16E,32,8.765,33.3475
833,2020/12/17,13:54,42-03.44N,143-34.43E,32,8.777,33.3261
834,2020/12/17,13:55,42-03.74N,143-34.69E,33,8.72,33.3209
835,2020/12/17,13:56,42-04.04N,143-34.97E,34,8.69,33.3178
836,2020/12/17,13:57,42-04.35N,143-35.26E,34,8.651,33.3312
837,2020/12/17,13:58,42-04.65N,143-35.55E,37,8.58,33.3142
838,2020/12/17,13:59,42-04.95N,143-35.87E,39,8.554,33.3139
839,2020/12/17,14:00,42-05.24N,143-36.18E,36,8.56,33.303
840,2020/12/17,14:01,42-05.55N,143-36.46E,32,8.523,33.2922
841,2020/12/17,14:02,42-05.88N,143-36.72E,30,8.535,33.29
842,2020/12/17,14:03,42-06.20N,143-36.95E,27,8.525,33.2735
843,2020/12/17,14:04,42-06.53N,143-37.19E,29,8.484,33.2754
844,2020/12/17,14:05,42-06.84N,143-37.44E,30,8.423,33.2714
845,2020/12/17,14:06,42-07.15N,143-37.69E,30,8.41,33.2633
846,2020/12/17,14:07,42-07.47N,143-37.94E,30,8.375,33.2588
847,2020/12/17,14:08,42-07.79N,143-38.14E,22,8.334,33.2703
848,2020/12/17,14:09,42-08.14N,143-38.28E,14,8.328,33.2577
849,2020/12/17,14:10,42-08.48N,143-38.38E,11,8.368,33.2584
850,2020/12/17,14:11,42-08.83N,143-38.47E,9,8.377,33.2597
851,2020/12/17,14:12,42-09.19N,143-38.56E,12,8.33,33.2578
852,2020/12/17,14:13,42-09.53N,143-38.67E,13,8.251,33.2538
853,2020/12/17,14:14,42-09.88N,143-38.79E,14,8.196,33.2433
854,2020/12/17,14:15,42-10.22N,143-38.91E,15,8.106,33.2447
855,2020/12/17,14:16,42-10.56N,143-39.04E,14,8.113,33.2336
856,2020/12/17,14:17,42-10.92N,143-39.17E,14,8.086,33.2008
857,2020/12/17,14:18,42-11.26N,143-39.29E,15,8.079,33.2044
858,2020/12/17,14:19,42-11.61N,143-39.41E,14,8.113,33.2128
859,2020/12/17,14:20,42-11.95N,143-39.54E,14,8.168,33.2111
860,2020/12/17,14:21,42-12.30N,143-39.66E,14,8.202,33.2089
861,2020/12/17,14:22,42-12.66N,143-39.78E,14,8.237,33.2076
862,2020/12/17,14:23,42-12.99N,143-39.90E,16,8.328,33.2116
863,2020/12/17,14:24,42-13.34N,143-40.04E,16,8.554,33.2284
864,2020/12/17,14:25,42-13.68N,143-40.19E,17,8.576,33.2705
865,2020/12/17,14:26,42-14.02N,143-40.33E,17,8.522,33.2891
866,2020/12/17,14:27,42-14.37N,143-40.49E,18,8.247,33.2893
867,2020/12/17,14:28,42-14.70N,143-40.64E,19,8.024,33.2737
868,2020/12/17,14:29,42-15.04N,143-40.81E,19,7.992,33.2304
869,2020/12/17,14:30,42-15.37N,143-40.96E,19,8.006,33.2123
870,2020/12/17,14:31,42-15.70N,143-41.12E,19,7.997,33.1978
871,2020/12/17,14:32,42-16.04N,143-41.28E,19,7.954,33.1975
872,2020/12/17,14:33,42-16.36N,143-41.44E,19,7.908,33.1853
873,2020/12/17,14:34,42-16.69N,143-41.61E,23,7.838,33.1706
874,2020/12/17,14:35,42-17.00N,143-41.82E,28,7.742,33.159
875,2020/12/17,14:36,42-17.30N,143-42.05E,29,7.722,33.1521
876,2020/12/17,14:37,42-17.72N,143-42.37E,30,7.756,33.1363
877,2020/12/17,14:38,42-17.89N,143-42.51E,29,7.806,33.125
878,2020/12/17,14:39,42-18.18N,143-42.73E,29,7.875,33.1368
879,2020/12/17,14:40,42-18.48N,143-42.95E,29,7.975,33.1436
880,2020/12/17,14:41,42-18.78N,143-43.18E,29,7.998,33.163
881,2020/12/17,14:42,42-19.09N,143-43.41E,29,7.877,33.1655
882,2020/12/17,14:43,42-19.38N,143-43.64E,29,7.865,33.1631
883,2020/12/17,14:44,42-19.69N,143-43.87E,28,8.054,33.1604
884,2020/12/17,14:45,42-19.98N,143-44.09E,29,8.251,33.1688
885,2020/12/17,14:46,42-20.27N,143-44.32E,29,8.461,33.1768
886,2020/12/17,14:47,42-20.58N,143-44.55E,30,8.552,33.2166
887,2020/12/17,14:48,42-20.87N,143-44.76E,26,8.59,33.2412
888,2020/12/17,14:49,42-21.19N,143-44.96E,24,8.667,33.2419
889,2020/12/17,14:50,42-21.49N,143-45.14E,23,8.717,33.2541
890,2020/12/17,14:51,42-21.80N,143-45.32E,23,8.742,33.2627
891,2020/12/17,14:52,42-22.12N,143-45.52E,24,8.755,33.2717
892,2020/12/17,14:53,42-22.43N,143-45.71E,24,8.774,33.274
893,2020/12/17,14:54,42-22.75N,143-45.90E,23,8.779,33.2753
894,2020/12/17,14:55,42-23.05N,143-46.08E,24,8.793,33.2895
895,2020/12/17,14:56,42-23.36N,143-46.27E,24,8.797,33.2968
896,2020/12/17,14:57,42-23.68N,143-46.46E,23,8.781,33.2922
897,2020/12/17,14:58,42-23.99N,143-46.64E,23,8.789,33.2877
898,2020/12/17,14:59,42-24.30N,143-46.82E,22,8.799,33.2801
899,2020/12/17,15:00,42-24.62N,143-47.00E,21,8.805,33.2995
900,2020/12/17,15:01,42-24.94N,143-47.17E,21,8.808,33.2935
901,2020/12/17,15:02,42-25.27N,143-47.33E,20,8.779,33.3012
902,2020/12/17,15:03,42-25.59N,143-47.49E,20,8.704,33.2865
903,2020/12/17,15:04,42-25.91N,143-47.66E,20,8.556,33.2828
904,2020/12/17,15:05,42-26.23N,143-47.82E,20,8.519,33.2548
905,2020/12/17,15:06,42-26.54N,143-47.98E,21,8.507,33.2458
906,2020/12/17,15:07,42-26.86N,143-48.16E,22,8.493,33.2289
907,2020/12/17,15:08,42-27.15N,143-48.35E,25,8.531,33.2281
908,2020/12/17,15:09,42-27.45N,143-48.55E,28,8.555,33.2204
909,2020/12/17,15:10,42-27.73N,143-48.78E,32,8.517,33.2486
910,2020/12/17,15:11,42-28.00N,143-49.04E,35,8.475,33.2298
911,2020/12/17,15:12,42-28.26N,143-49.32E,39,8.41,33.2423
912,2020/12/17,15:13,42-28.51N,143-49.61E,42,8.291,33.2297
913,2020/12/17,15:14,42-28.76N,143-49.96E,46,8.271,33.2277
914,2020/12/17,15:15,42-28.99N,143-50.29E,47,8.277,33.2036
915,2020/12/17,15:16,42-29.18N,143-50.57E,48,8.282,33.1995
916,2020/12/17,15:17,42-29.39N,143-50.91E,48,8.26,33.1953
917,2020/12/17,15:18,42-29.61N,143-51.23E,48,8.242,33.1917
918,2020/12/17,15:19,42-29.83N,143-51.57E,48,8.226,33.1944
919,2020/12/17,15:20,42-30.04N,143-51.90E,49,8.206,33.2054
920,2020/12/17,15:21,42-30.26N,143-52.23E,48,8.195,33.1952
921,2020/12/17,15:22,42-30.49N,143-52.56E,45,8.174,33.1865
922,2020/12/17,15:23,42-30.73N,143-52.85E,41,8.153,33.1952
923,2020/12/17,15:24,42-30.99N,143-53.14E,39,8.119,33.1928
924,2020/12/17,15:25,42-31.25N,143-53.43E,38,8.068,33.1924
925,2020/12/17,15:26,42-31.50N,143-53.68E,35,8.065,33.1831
926,2020/12/17,15:27,42-31.82N,143-53.97E,33,8.102,33.1645
927,2020/12/17,15:28,42-32.09N,143-54.20E,31,8.153,33.1596
928,2020/12/17,15:29,42-32.35N,143-54.42E,30,8.173,33.1759
929,2020/12/17,15:30,42-32.64N,143-54.65E,31,8.203,33.1719
930,2020/12/17,15:31,42-32.89N,143-54.86E,30,8.237,33.1725
931,2020/12/17,15:32,42-33.17N,143-55.09E,30,8.239,33.1784
932,2020/12/17,15:33,42-33.45N,143-55.32E,31,8.223,33.1824